Regional Weather Roundup
Issued by NWS

Home | Current Version | Previous Version | Graphics & Text | Print | Product List | Glossary On
Versions: 1 2 3 4 5 6 7 8 9 10 11 12 13 14 15 16 17 18 19 20 21 22 23 24 25 26 27 28 29 30 31 32 33 34 35 36 37 38 39 40 41 42 43 44 45 46 47 48 49 50
000
ASUS43 KMPX 212001
RWRMN
WEATHER ROUNDUP FOR MINNESOTA
NATIONAL WEATHER SERVICE TWIN CITIES/CHANHASSEN MN
300 PM CDT MON MAY 21 2018


NOTE: "FAIR" INDICATES FEW OR NO CLOUDS BELOW 12,000 FEET WITH NO
SIGNIFICANT WEATHER AND/OR OBSTRUCTIONS TO VISIBILITY. N/A MEANS
CURRENT SKY AND/OR WEATHER CONDITIONS ARE NOT AVAILABLE.

MNZ060>063-068>070-212100-
   Twin Cities Metro

CITY           SKY/WX    TMP DP  RH WIND       PRES   REMARKS
TWIN CITIES    PTSUNNY   71  53  52 VRB5      30.02F
ST PAUL        CLOUDY    68  50  52 E7        30.02F
CRYSTAL        CLOUDY    67  50  54 SE7       30.01F
BLAINE         PTSUNNY   72  48  43 E8        30.03F
LAKEVILLE      CLOUDY    68  52  56 SE9       30.02S
EDEN PRAIRIE   CLOUDY    70  51  51 E8        30.01F
SOUTH ST PAUL  PTSUNNY   69  49  49 SE7G16    30.02F
LAKE ELMO      PTSUNNY   66  50  55 E9        30.04F
$$
MNZ001>005-007-008-013>017-022>024-027-028-212100-
   Northwest Minnesota

CITY           SKY/WX    TMP DP  RH WIND       PRES   REMARKS
BEMIDJI        FAIR      73  39  28 S3G16     30.01F
HALLOCK        FAIR      79  28  15 S10G20    29.96F
ROSEAU         FAIR      75  34  22 S5        29.99F
WARROAD        FAIR      70  43  37 NE12      30.01F
THIEF RVR FALL FAIR      74  28  18 S9        30.00F
CROOKSTON      FAIR      75  36  23 S10       29.98F
FOSSTON        FAIR      75  34  22 SE8       30.01S
DETROIT LAKES  FAIR      66  41  39 SE14      30.04S
MOORHEAD       FAIR      72  37  28 E10       30.00F
PARK RAPIDS    CLOUDY    62  35  36 SE14      30.05S
MAHNOMEN       CLOUDY    69  38  31 SE10      30.01F
$$
MNZ006-009>011-018-025>026-212100-
   North Central Minnesota

CITY           SKY/WX    TMP DP  RH WIND       PRES   REMARKS
BAUDETTE       FAIR      75  30  19 CALM      30.00F
FLAG ISLAND    FAIR      68  32  26 S5        30.00F
INTL FALLS     FAIR      75  38  26 NE12      30.00F
WASKISH        FAIR      72  45  37 NW10      30.01F
BIG FORK       FAIR      73  34  23 SW3       30.02F
LONGVILLE      PTSUNNY   63  37  39 S8        30.06S
GRAND RAPIDS   PTSUNNY   71  36  27 S13       30.05F
CRANE LAKE     FAIR      73  21  14 S9        30.03F
ORR            FAIR      73  16  11 CALM      30.00F
COOK           FAIR      73  30  20 S7        30.03F
WALKER         CLOUDY    65  34  31 S12G18    30.04F
$$
MNZ012-019>021-037-212100-
   Northeast Minnesota

CITY           SKY/WX    TMP DP  RH WIND       PRES   REMARKS
DULUTH         PTSUNNY   69  35  28 SE12      30.06F
ELY            FAIR      75  25  15 CALM      30.02F
HIBBING        FAIR      73  32  22 E8        30.02F
EVELETH        FAIR      74  31  21 SE12G17   30.04F
DULUTH HARBOR  FAIR      52  43  71 N5        30.07F
TWO HARBORS    FAIR      77  45  31 E9        30.04F
SILVER BAY     FAIR      72  28  20 E9        30.05F
GRAND MARAIS     N/A     50  33  52 E5        30.08F
G MARAIS ARPRT FAIR      66  23  19 SE6       30.10F
$$
MNZ029>031-032-039>041-046>048-054>057-064-212100-
   West Central Minnesota

CITY           SKY/WX    TMP DP  RH WIND       PRES   REMARKS
FERGUS FALLS   PTSUNNY   66  54  63 E10       29.97F
WHEATON        PTSUNNY   66  54  63 SE14      30.02S
MORRIS         CLOUDY    61  55  82 E8        30.02S
ALEXANDRIA     CLOUDY    58  54  86 E12       30.05F
ELBOW LAKE     CLOUDY    61  54  76 SE14      30.03S
WADENA         CLOUDY    61  45  55 SE14      30.05S
GLENWOOD       CLOUDY    55  54  94 E9        30.05S
APPLETON       CLOUDY    61  55  82 SE7       30.02S
BENSON         CLOUDY    61  55  82 SE6       30.04S
ORTONVILLE     LGT RAIN  61  55  82 SE10      30.01F
MADISON        CLOUDY    64  57  77 S6        30.02S
WILLMAR        CLOUDY    57  55  94 E7        30.05S
$$
MNZ033>034-036-042>043-049>051-058-059-212100-
   Central Minnesota

CITY           SKY/WX    TMP DP  RH WIND       PRES   REMARKS
ST CLOUD       CLOUDY    53  49  86 N5        30.05F
SAUK CENTRE    CLOUDY    55  53  95 NE8       30.05F FOG
PAYNESVILLE    LGT RAIN  56  55  96 E8        30.04F
AITKIN         FAIR      63  34  34 E3        30.05F
PINE RIVER     LGT RAIN  57  43  58 SE5       30.09F
BRAINERD       CLOUDY    65  39  38 VRB6      30.06F
STAPLES        PTSUNNY   57  41  54 SE9       30.06F
LONG PRAIRIE   CLOUDY    54  46  76 NE8       30.06F
LITTLE FALLS   LGT RAIN  55  36  47 E6        30.06F
LITCHFIELD     RAIN      59  59 100 E7        30.03F
BUFFALO        CLOUDY    63  50  63 NW6       30.04S
MAPLE LAKE     CLOUDY    62  52  70 NE5       30.05S
HUTCHINSON     CLOUDY    62  57  83 E3        30.03F
$$
MNZ037-044-045-052-053-212100-
   East Central Minnesota

CITY           SKY/WX    TMP DP  RH WIND       PRES   REMARKS
PRINCETON      CLOUDY    63  39  42 N3        30.05S
MORA           CLOUDY    64  30  27 SE5       30.07S
CAMBRIDGE      CLOUDY    68  45  42 E3        30.04F
RUSH CITY      CLOUDY    66  30  25 SE6       30.05F
MOOSE LAKE     CLOUDY    66  34  30 CALM      30.04F
HINCKLEY       CLOUDY    68  36  30 CALM      30.05F
CLOQUET        CLOUDY    64  32  29 SW5       30.06S
MCGREGOR       CLOUDY    66  32  28 SE8       30.06F
$$
MNZ071>073-080-081-089-090-097-098-212100-
   Southwest Minnesota

CITY           SKY/WX    TMP DP  RH WIND       PRES   REMARKS
MONTEVIDEO     CLOUDY    61  57  88 S5        30.02F
GRANITE FALLS  CLOUDY    63  58  83 SE5       30.03F
CANBY          CLOUDY    62  57  83 CALM      30.02F
MARSHALL       LGT RAIN  61  56  83 S6        30.01F
REDWOOD FALLS  CLOUDY    61  57  87 SE7       30.01F
OLIVIA         CLOUDY    59  55  88 SE6       30.01F
PIPESTONE      CLOUDY    61  57  88 CALM      30.01F
WINDOM         RAIN      61  45  55 CALM      30.01F
WORTHINGTON      N/A     58  57  97 S6        30.02F
JACKSON        CLOUDY    59  55  88 CALM      30.02F FOG
TRACY          LGT RAIN  60  59  97 CALM      30.01F
SLAYTON        CLOUDY    59  57  94 SE6       30.02F
$$
MNZ065>067-074>077-082>085-091>093-212100-
   South Central Minnesota

CITY           SKY/WX    TMP DP  RH WIND       PRES   REMARKS
MANKATO        PTSUNNY   66  55  67 VRB7      30.01S
NEW ULM        CLOUDY    61  55  82 CALM      30.02S
ST JAMES       CLOUDY    63  57  82 CALM      30.02F
FAIRMONT       CLOUDY    62  57  83 CALM      30.02F
GLENCOE        CLOUDY    66  55  67 E5        30.01F
FARIBAULT      CLOUDY    66  54  63 CALM      30.02F
OWATONNA       DRIZZLE   63  55  77 SE13      30.03F
WASECA         CLOUDY    63  54  72 E12G17    30.02F
ALBERT LEA     CLOUDY    61  54  77 E7        30.01F
$$
MNZ078>079-086>088-094>096-212100-
   Southeast Minnesota

CITY           SKY/WX    TMP DP  RH WIND       PRES   REMARKS
ROCHESTER      CLOUDY    55  53  93 E9        30.04F
RED WING       CLOUDY    63  43  48 SE12      30.03F
STANTON        CLOUDY    64  49  58 E7        30.02S
DODGE CENTER   DRIZZLE   54  52  94 E6        30.04F
WINONA         LGT RAIN  55  52  88 E5        30.03F
AUSTIN         CLOUDY    55  54  94 E5        30.02F
PRESTON        CLOUDY    54  51  91 E6        30.04F FOG
$$
ABBREVIATIONS USED IN REMARKS
   TC - TEMPERATURES IN CELSIUS
  WCI - WIND CHILL INDEX
   HX - HEAT INDEX
  VSB - VISIBILITY
$$



USA.gov is the U.S. government's official web portal to all federal, state and local government web resources and services.